IRIDIUM 33 DEB, 39594

Orbit data source: Space-Track

IRIDIUM 33 DEB, 39594 is space debris in LEO originally from a launch on Sun, 14 Sep 1997 UTC launched from the Tyuratam Missile And Space Complex (TTMTR). The debris from Iridium 33, an American commercial communications satellite, has been tracked extensively since its accidental collision with the defunct Russian satellite Cosmos 2251 in 2009. This event, occurring at high speed in low Earth orbit (LEO), generated thousands of pieces of space debris, significantly increasing the risk of further collisions. The Iridium 33 debris cloud has impacted space traffic management and orbital debris mitigation strategies, making it a subject of ongoing study in space situational awareness.

Loading next visibility...
Identifier
39594, 1997-051AAG
Orbit
LEO
Last TLE update
8 months ago
Origin
Manufacturer
Unknown
Mission
Spacecraft
Bus & Motor
Unknown
Mass
Unknown
Launch date (UTC)
1997-09-14 (28 years ago)
Launch vehicle
Unknown
Launch site
Tyuratam Missile And Space Complex (TTMTR)
Object type
Payload
Rocket body
Debris
Shape & HBR
Unknown
Radar Cross Section
Small (<0.1 m²)

Expand to show TLE details & history

TLE from 8 months ago
0 IRIDIUM 33 DEB
1 39594U 97051AAG 24241.27618107  .00055651  00000-0  89930-2 0  9990
2 39594  86.3930 241.4016 0005673   7.4613 352.6687 14.71050867568905
Epoch: 2024-08-28T06:37Z
Definitive object data (Epoch: 2024-08-28T06:37:42.044Z)
Latitude
0.00003°
Longitude
164.9962°
Altitude
656.859 km
Speed
7.531 km/s
True Right ascension
16h 05m 36s
True Declination
0° 00' 00"
Sunlit
Object was in daylight at TLE epoch
Visualization TLE readout
Latitude
-31.61231°
Longitude
53.75369°
Altitude
545.824 km
Speed
7.587 km/s
Apparent Right ascension
11h 34m 26s
Apparent Declination
-47° 32' 35"
Sunlit
Object is in daylight
Visualization observer readout
Local Sidereal Time
03:18:12
Azimuth
120.032° SE
Elevation
-49.759°
Doppler factor
1
Orbital elements
Apogee altitude
658.618 km
Perigee altitude
650.638 km
Semi-major axis
7,032.765 km
Eccentricity
0.0005673
Inclination
86.393°
RAAN
241.4016°
Arg. of periapsis
7.4613°
True anomaly
352.6604°
Mean anomaly
352.6687°
Eccentric anomaly
352.66455°
Mean motion
3.68005 °/min
BSTAR
0.008993
Orbital period
97.82 mins
Loading maneuver chart data...
Loading SW <> Apogee altitude chart data...

IRIDIUM 33 DEB Visibility forecast

Observer location: undefined°, undefined°

Span
Click to sort rows by Start time (UTC) header in descending order
Start Az.
Max El. time (UTC)
Max El. Az.
Max El.
End time (UTC)
End Az.
6 mins2025-04-26 01:04:20.599Z143.933° SSE2025-04-26 01:07:20.599Z86.733° E26.259°2025-04-26 01:10:20.599Z28.291° NE
5 mins2025-04-26 12:39:20.599Z38.309° NE2025-04-26 12:41:20.599Z89.881° E26.411°2025-04-26 12:44:20.599Z143.56° SSE
|